TimeCDT,TemperatureF,Dew PointF,Humidity,Sea Level PressureIn,VisibilityMPH,Wind Direction,Wind SpeedMPH,Gust SpeedMPH,PrecipitationIn,Events,Conditions,WindDirDegrees,DateUTC
12:53 AM,55.0,44.1,67,29.90,10.0,SE,4.6,-,N/A,,Overcast,140,2013-05-28 05:53:00
1:53 AM,55.0,44.1,67,29.89,10.0,Variable,3.5,-,N/A,,Overcast,0,2013-05-28 06:53:00
2:53 AM,54.0,44.1,69,29.85,10.0,SE,5.8,-,N/A,,Overcast,130,2013-05-28 07:53:00
3:53 AM,54.0,44.1,69,29.83,10.0,Variable,4.6,-,N/A,,Overcast,0,2013-05-28 08:53:00
4:53 AM,54.0,44.1,69,29.83,10.0,Variable,4.6,-,N/A,,Overcast,0,2013-05-28 09:53:00
5:53 AM,54.0,44.1,69,29.82,10.0,East,3.5,-,N/A,,Overcast,80,2013-05-28 10:53:00
6:53 AM,54.0,45.0,72,29.82,10.0,ESE,4.6,-,N/A,,Overcast,120,2013-05-28 11:53:00
7:53 AM,54.0,46.0,75,29.81,10.0,East,4.6,-,N/A,,Overcast,90,2013-05-28 12:53:00
8:53 AM,55.0,46.9,74,29.80,10.0,East,8.1,-,N/A,,Overcast,100,2013-05-28 13:53:00
9:53 AM,57.0,46.9,69,29.78,10.0,East,6.9,-,N/A,,Overcast,90,2013-05-28 14:53:00
10:53 AM,57.9,48.0,70,29.78,10.0,ENE,5.8,-,N/A,,Overcast,70,2013-05-28 15:53:00
11:53 AM,60.1,48.9,67,29.78,10.0,Variable,3.5,-,N/A,,Overcast,0,2013-05-28 16:53:00
12:53 PM,62.1,51.1,67,29.77,10.0,Variable,5.8,-,N/A,,Overcast,0,2013-05-28 17:53:00
1:53 PM,60.1,51.1,72,29.77,10.0,SSE,5.8,-,N/A,,Overcast,160,2013-05-28 18:53:00
2:53 PM,62.1,51.1,67,29.77,10.0,ESE,5.8,-,N/A,,Overcast,110,2013-05-28 19:53:00
3:53 PM,64.0,53.1,67,29.75,10.0,Variable,3.5,-,N/A,,Overcast,0,2013-05-28 20:53:00
4:53 PM,63.0,53.1,70,29.75,10.0,SSE,4.6,-,N/A,,Overcast,150,2013-05-28 21:53:00
5:53 PM,61.0,55.9,83,29.75,9.0,Calm,Calm,-,0.00,Rain,Light Rain,0,2013-05-28 22:53:00
6:03 PM,60.8,55.4,82,29.75,1.8,Calm,Calm,-,0.01,Rain,Light Rain,0,2013-05-28 23:03:00
6:09 PM,59.0,55.4,88,29.75,3.0,Calm,Calm,-,0.01,Rain,Light Rain,0,2013-05-28 23:09:00
6:53 PM,60.1,55.9,86,29.77,10.0,Calm,Calm,-,0.03,,Overcast,0,2013-05-28 23:53:00
7:53 PM,59.0,55.9,90,29.75,10.0,SSE,3.5,-,N/A,,Overcast,160,2013-05-29 00:53:00
8:09 PM,59.0,55.4,88,29.75,10.0,South,4.6,-,N/A,,Overcast,190,2013-05-29 01:09:00
8:53 PM,57.9,55.0,90,29.76,10.0,SSW,3.5,-,N/A,,Overcast,210,2013-05-29 01:53:00
9:53 PM,57.0,55.0,93,29.75,10.0,Calm,Calm,-,N/A,,Overcast,0,2013-05-29 02:53:00
10:53 PM,55.9,55.0,97,29.78,5.0,South,3.5,-,N/A,,Overcast,190,2013-05-29 03:53:00
11:35 PM,55.4,53.6,94,29.79,6.0,Calm,Calm,-,N/A,,Overcast,0,2013-05-29 04:35:00
11:53 PM,55.9,54.0,93,29.79,7.0,Calm,Calm,-,N/A,,Overcast,0,2013-05-29 04:53:00